Weather History for Opa Locka, FL

Change the Weather History Date:

Friday, March 14, 2014

  Actual Average Record
Temperature  
Mean Temperature 66 °F -  
Max Temperature 75 °F 80 °F 89 °F (1986)
Min Temperature 57 °F 61 °F 43 °F (1968)
Cooling Degree Days 1    
Growing Degree Days 16 (Base 50)    
Moisture  
Dew Point 50 °F    
Average Humidity 54    
Maximum Humidity 81    
Minimum Humidity 43    
Precipitation  
Precipitation 0.00 in - - ()
Sea Level Pressure  
Sea Level Pressure 30.20 in    
Wind  
Wind Speed 10 mph (ENE)    
Max Wind Speed 18 mph    
Max Gust Speed 28 mph    
Visibility 10 miles    
Events      
Averages and records for this station are not official NWS values.
T = Trace of Precipitation, MM = Missing Value Source: NWS Daily Summary

Daily Weather History Graph

Daily Weather History Graph

Search for Another Location

Airport:

Trip Planner

Search our weather history database for the weather conditions in past years. The results will help you decide how hot, cold, wet, or windy it might be!

Date:

Astronomy

Mar. 14, 2014 Rise Set
Actual Time 7:31 AM EDT 7:29 PM EDT
Civil Twilight 7:08 AM EDT 7:52 PM EDT
Nautical Twilight 6:41 AM EDT 8:19 PM EDT
Astronomical Twilight 6:15 AM EDT 8:45 PM EDT
Moon 5:56 PM EDT (3/14) 6:01 AM EDT (3/14)
Length of Visible Light 12h 44m
Length of Day
11h 58m
Waxing Gibbous, 96% of the Moon is Illuminated
Mar 14
Waxing Gibbous
Mar 16
Full
Mar 23
Last Quarter
Mar 30
New
Apr 7
First Quarter

Hourly Weather History & Observations

Time (EDT) Temp. Dew Point Humidity Pressure Visibility Wind Dir Wind Speed Gust Speed Precip Events Conditions
12:53 AM 62.1 °F 44.1 °F 52% 30.17 in 10.0 mi North 9.2 mph - N/A   Clear
1:53 AM 61.0 °F 43.0 °F 52% 30.19 in 10.0 mi North 9.2 mph - N/A   Clear
2:53 AM 62.1 °F 44.1 °F 52% 30.17 in 10.0 mi North 9.2 mph - N/A   Mostly Cloudy
3:53 AM 61.0 °F 46.0 °F 58% 30.16 in 10.0 mi North 8.1 mph - N/A   Mostly Cloudy
4:53 AM 60.1 °F 46.9 °F 62% 30.16 in 10.0 mi North 8.1 mph - N/A   Scattered Clouds
5:53 AM 59.0 °F 48.0 °F 67% 30.17 in 10.0 mi North 8.1 mph - N/A   Partly Cloudy
6:53 AM 57.9 °F 50.0 °F 75% 30.18 in 10.0 mi North 9.2 mph - N/A   Clear
7:53 AM 57.9 °F 52.0 °F 81% 30.19 in 10.0 mi North 8.1 mph - N/A   Partly Cloudy
8:53 AM 63.0 °F 52.0 °F 67% 30.22 in 10.0 mi North 6.9 mph - N/A   Partly Cloudy
9:53 AM 70.0 °F 51.1 °F 51% 30.24 in 10.0 mi East 18.4 mph 27.6 mph N/A   Mostly Cloudy
10:53 AM 72.0 °F 51.1 °F 48% 30.26 in 10.0 mi East 17.3 mph 23.0 mph N/A   Mostly Cloudy
11:53 AM 73.9 °F 51.1 °F 45% 30.27 in 10.0 mi ENE 16.1 mph 26.5 mph N/A   Mostly Cloudy
12:53 PM 73.9 °F 50.0 °F 43% 30.25 in 10.0 mi ENE 13.8 mph 25.3 mph N/A   Scattered Clouds
1:53 PM 73.9 °F 50.0 °F 43% 30.22 in 10.0 mi East 11.5 mph 23.0 mph N/A   Scattered Clouds
2:53 PM 75.0 °F 53.1 °F 46% 30.22 in 10.0 mi East 16.1 mph 21.9 mph N/A   Mostly Cloudy
3:53 PM 73.9 °F 51.1 °F 45% 30.21 in 10.0 mi East 16.1 mph - N/A   Mostly Cloudy
4:53 PM 75.0 °F 52.0 °F 44% 30.19 in 10.0 mi ENE 16.1 mph - N/A   Mostly Cloudy
5:53 PM 72.0 °F 50.0 °F 46% 30.19 in 10.0 mi East 13.8 mph - N/A   Mostly Cloudy
6:53 PM 72.0 °F 53.1 °F 51% 30.19 in 10.0 mi ESE 10.4 mph - N/A   Mostly Cloudy
7:53 PM 70.0 °F 52.0 °F 53% 30.18 in 10.0 mi East 8.1 mph - N/A   Mostly Cloudy
8:53 PM 68.0 °F 50.0 °F 52% 30.18 in 10.0 mi East 8.1 mph - N/A   Scattered Clouds
9:53 PM 68.0 °F 50.0 °F 52% 30.19 in 10.0 mi ESE 5.8 mph - N/A   Scattered Clouds
10:53 PM 66.9 °F 51.1 °F 57% 30.19 in 10.0 mi East 4.6 mph - N/A   Clear
11:53 PM 68.0 °F 53.1 °F 59% 30.20 in 10.0 mi ESE 4.6 mph - N/A   Mostly Cloudy